Date,TemperatureHighF,TemperatureAvgF,TemperatureLowF,DewpointHighF,DewpointAvgF,DewpointLowF,HumidityHigh,HumidityAvg,HumidityLow,PressureMaxIn,PressureMinIn,WindSpeedMaxMPH,WindSpeedAvgMPH,GustSpeedMaxMPH,PrecipitationSumIn
2013-1-1,27.0,22.9,16.5,20.7,17.4,12.8,89,80,66,30.50,30.39,6,1,6,0.00
2013-1-2,31.6,24.1,15.3,21.6,16.0,10.6,84,72,53,30.50,30.39,6,1,6,450.04
2013-1-3,31.6,19.0,11.7,20.8,12.2,7.5,86,75,51,30.41,30.21,4,1,4,0.00
2013-1-4,33.4,26.8,18.0,24.2,18.8,13.5,84,72,56,30.36,30.27,4,1,4,0.00
2013-1-5,39.4,31.4,26.1,27.8,23.0,18.7,88,72,53,30.33,30.15,12,1,12,0.00
2013-1-6,35.8,30.7,27.3,29.3,24.8,21.2,89,79,58,30.15,30.03,7,1,7,0.00
2013-1-7,39.4,36.0,32.0,36.8,32.8,29.1,96,88,74,30.03,29.74,13,2,13,0.50
2013-1-8,46.2,38.2,34.3,40.5,31.7,27.3,98,78,60,30.09,29.79,21,3,21,0.12
2013-1-9,49.1,43.0,34.0,32.8,29.4,26.2,78,59,45,29.85,29.56,33,6,33,0.00
2013-1-10,34.0,30.5,27.0,27.9,23.9,21.4,89,76,63,29.85,29.74,9,2,9,0.00
2013-1-11,37.6,24.4,12.0,26.1,14.6,5.6,91,69,36,30.21,29.85,8,1,8,0.09
2013-1-12,30.2,19.8,11.3,18.2,12.6,4.3,84,74,52,30.30,30.15,7,1,7,0.00
2013-1-13,28.0,19.4,13.6,18.3,11.4,8.1,83,71,53,30.36,30.24,5,1,5,0.00
2013-1-14,29.5,24.0,19.6,20.9,17.1,11.7,81,75,58,30.41,30.21,6,1,6,0.00
2013-1-15,33.6,25.8,17.2,25.5,20.1,13.8,88,79,61,30.50,30.39,5,1,5,0.00
2013-1-16,36.3,24.6,14.5,25.7,20.2,10.1,95,84,59,30.53,30.44,6,1,6,0.00
2013-1-17,28.0,22.6,14.4,23.0,19.3,10.1,91,87,76,30.53,30.30,4,1,4,0.00
2013-1-18,31.8,20.5,13.3,21.1,16.1,9.4,90,83,61,30.33,30.15,5,0,5,0.00
2013-1-19,40.8,24.1,11.8,22.3,17.1,9.0,91,76,44,30.41,30.27,5,1,5,0.03
2013-1-20,38.5,23.7,15.1,23.9,17.5,10.4,93,78,49,30.44,30.33,4,1,4,0.22
2013-1-21,27.5,21.6,16.2,21.7,18.2,11.9,92,87,76,30.39,30.21,4,1,4,0.00
2013-1-22,28.2,20.3,14.2,20.8,16.0,10.0,88,83,70,30.33,30.12,4,1,4,0.00
2013-1-23,37.9,29.2,21.9,33.6,23.9,19.0,97,82,54,30.12,29.85,12,2,12,0.05
2013-1-24,38.5,30.7,26.1,29.9,24.9,20.5,90,79,60,30.21,30.03,8,1,8,0.08
2013-1-25,42.1,35.6,31.8,38.0,33.7,28.9,98,93,84,30.12,29.85,5,0,5,0.46
2013-1-26,40.1,35.7,32.7,37.6,32.0,28.0,98,87,65,29.97,29.82,8,2,8,0.00
2013-1-27,35.4,31.9,28.8,28.9,26.7,24.4,89,81,66,29.94,29.85,9,2,9,0.00
2013-1-28,37.0,31.8,29.5,31.4,27.9,23.8,94,85,70,29.91,29.79,12,2,12,0.04
2013-1-29,41.2,33.9,30.2,32.9,28.4,24.0,96,81,53,30.12,29.82,7,1,7,0.89
2013-1-30,50.5,37.9,33.4,37.2,32.8,28.8,97,83,48,30.21,30.06,8,1,8,1.01
2013-1-31,48.6,39.7,34.2,39.4,35.3,32.4,98,85,59,30.24,30.12,10,2,10,0.00
2013-2-1,48.7,36.7,28.8,34.2,30.6,25.6,94,80,46,30.41,30.15,8,1,8,0.00
2013-2-2,36.7,31.4,27.7,34.3,30.3,0.0,100,96,87,30.44,30.21,7,2,7,0.00
2013-2-3,38.8,32.9,28.4,35.1,31.3,0.0,98,94,82,30.24,30.06,5,1,5,0.00
2013-2-4,47.1,36.6,30.0,36.6,31.4,27.5,98,83,52,30.09,29.94,10,1,10,0.00
2013-2-5,46.6,38.1,30.2,39.6,32.2,28.3,98,80,53,29.97,29.76,12,2,12,0.00
2013-2-6,50.5,40.4,34.3,32.8,28.8,24.9,80,64,42,30.03,29.85,14,3,14,0.00
2013-2-7,45.1,38.3,34.5,35.6,30.1,27.5,90,72,56,30.00,29.85,10,2,10,1.06
2013-2-8,45.1,35.5,30.4,33.2,30.6,24.8,94,83,53,30.09,30.00,7,1,7,1.01
2013-2-9,42.6,30.8,24.1,31.6,25.5,21.3,95,82,51,30.18,29.97,7,1,7,1.01
2013-2-10,37.4,29.4,23.5,32.5,24.9,21.0,95,84,64,30.24,30.15,4,1,4,0.00
2013-2-11,46.4,35.5,26.6,30.8,26.8,23.9,91,72,44,30.21,30.09,6,1,6,0.00
2013-2-12,49.1,39.2,33.6,35.1,29.8,26.1,80,70,46,30.24,30.09,17,2,17,0.00
2013-2-13,52.5,40.0,25.2,36.0,26.6,18.3,85,61,38,30.33,30.09,12,2,12,0.00
2013-2-14,48.9,32.9,23.5,30.4,23.6,18.6,89,71,43,30.50,30.30,6,1,6,0.00
2013-2-15,57.7,36.4,23.2,32.6,26.6,20.2,93,71,36,30.50,30.21,7,1,7,0.00
2013-2-16,48.6,38.6,29.5,36.6,30.3,25.2,92,73,51,30.21,29.85,11,2,11,0.00
2013-2-17,50.9,39.5,31.1,30.7,23.1,18.5,87,54,33,30.09,29.91,13,3,13,0.00
2013-2-18,45.5,35.6,24.6,27.3,21.2,17.4,86,58,39,30.06,29.74,11,2,11,0.00
2013-2-19,39.6,34.9,30.7,34.4,29.7,20.6,91,81,59,29.85,29.68,6,1,6,0.09
2013-2-20,46.4,33.0,22.3,31.0,24.8,16.9,88,73,39,29.97,29.85,8,1,8,0.00
2013-2-21,41.0,32.7,21.7,34.1,26.6,17.4,88,78,59,30.00,29.85,12,2,12,0.04
2013-2-22,39.9,36.2,33.4,35.6,30.7,21.4,91,81,55,29.97,29.59,20,4,20,0.25
2013-2-23,49.8,35.8,24.1,24.1,20.4,15.8,81,55,30,30.18,29.68,15,3,15,1.47
2013-2-24,44.8,34.9,23.7,25.6,22.4,18.5,87,62,42,30.27,30.00,11,3,11,1.47
2013-2-25,46.0,38.7,33.3,34.0,24.4,16.9,89,58,41,30.06,29.82,15,4,15,0.12
2013-2-26,48.7,36.2,26.4,25.0,21.0,18.1,81,55,37,30.24,30.06,9,2,9,0.12
2013-2-27,51.3,39.8,32.7,27.0,23.3,20.2,70,53,37,30.24,30.15,13,2,13,0.00
2013-2-28,46.6,40.0,35.2,39.2,33.4,25.8,96,78,56,30.30,30.21,12,2,12,0.00
2013-3-1,54.7,49.6,36.5,45.2,40.2,29.0,98,71,56,30.33,30.21,15,3,15,0.04
2013-3-2,57.7,48.9,39.7,40.4,36.7,33.4,86,64,41,30.27,29.85,18,2,18,0.00
2013-3-3,50.4,40.7,29.7,34.7,16.8,13.2,63,38,28,30.15,29.85,22,5,22,0.00
2013-3-4,54.3,36.7,23.9,27.5,16.9,11.0,83,47,26,30.21,30.03,13,2,13,0.00
2013-3-5,46.6,37.0,31.8,29.0,19.3,13.1,74,50,33,30.09,29.79,14,4,14,0.00
2013-3-6,52.3,39.7,35.4,38.6,29.4,21.1,88,67,46,29.82,29.50,13,4,13,0.09
2013-3-7,52.0,39.1,31.8,34.5,30.6,23.7,95,75,39,30.06,29.82,12,2,12,0.29
2013-3-8,48.4,34.4,28.6,34.3,29.4,24.9,98,83,50,30.12,29.97,8,1,8,0.00
2013-3-9,58.8,39.0,27.0,35.6,26.5,20.8,95,67,27,30.36,30.12,10,1,10,0.00
2013-3-10,49.8,36.4,25.5,34.4,27.5,22.2,94,73,38,30.39,30.12,10,1,10,0.00
2013-3-11,58.3,41.9,30.9,38.0,26.2,15.9,95,60,25,30.24,30.12,10,2,10,0.00
2013-3-12,58.1,47.5,37.2,42.0,34.3,21.6,87,61,44,30.18,29.97,15,3,15,2.05
2013-3-13,63.5,53.3,46.6,41.4,37.2,34.7,74,55,38,30.12,30.03,16,3,229,0.00
2013-3-14,67.3,54.6,43.3,43.0,37.5,27.8,80,54,33,30.09,29.91,7,1,7,2.05
2013-3-15,66.7,52.3,41.2,40.8,33.1,26.7,78,50,33,30.12,29.97,10,1,229,2.05
2013-3-16,60.1,46.7,36.9,37.9,34.3,27.0,90,64,36,30.00,29.62,8,1,8,2.13
2013-3-17,57.4,40.4,32.2,32.5,21.4,12.4,81,50,26,29.97,29.65,11,2,11,0.00
2013-3-18,50.0,36.0,28.2,35.2,22.7,15.2,77,59,37,30.15,29.91,10,1,10,0.00
2013-3-19,59.5,39.3,20.7,31.9,21.7,15.8,90,55,26,30.21,29.79,6,1,6,2.13
2013-3-20,57.7,43.9,36.9,50.1,38.7,22.4,97,82,45,29.79,29.44,14,2,14,0.58
2013-3-21,53.4,37.3,29.8,30.3,24.2,19.5,84,61,29,29.97,29.76,10,2,10,0.00
2013-3-22,58.1,35.0,24.4,31.7,22.3,14.8,88,63,29,30.21,29.97,9,0,9,0.00
2013-3-23,45.5,27.4,19.0,26.3,18.1,13.3,86,69,38,30.30,30.21,6,0,6,0.00
2013-3-24,61.2,39.2,21.2,29.5,17.7,9.5,82,46,24,30.30,30.09,6,0,6,0.00
2013-3-25,59.5,39.3,22.1,27.3,18.6,10.7,69,46,26,30.18,29.91,8,1,8,0.00
2013-3-26,63.3,44.4,27.0,28.4,23.5,17.6,77,47,25,30.00,29.85,10,2,10,0.00
2013-3-27,64.6,48.1,37.2,35.9,30.2,24.9,76,52,34,29.97,29.85,10,2,10,0.00
2013-3-28,66.9,49.1,36.1,45.2,37.0,32.2,92,66,33,30.06,29.94,9,1,9,2.71
2013-3-29,66.9,50.4,36.3,45.3,33.0,25.1,94,57,25,30.18,30.06,13,2,13,2.71
2013-3-30,71.8,53.2,33.1,38.5,31.0,26.6,86,47,24,30.24,30.09,8,1,8,2.71
2013-3-31,76.3,53.6,34.3,37.5,32.0,27.5,87,50,21,30.12,29.85,58,2,58,0.00
2013-4-1,78.8,56.9,38.1,37.5,32.5,28.2,76,44,20,29.94,29.85,9,1,9,0.00
2013-4-2,69.6,57.8,48.0,40.4,37.2,31.9,72,48,30,30.06,29.91,13,4,13,0.00
2013-4-3,69.6,55.8,43.7,39.3,35.4,31.4,78,49,27,30.12,29.94,16,2,16,2.71
2013-4-4,59.0,50.7,41.5,48.5,40.5,32.0,88,69,43,30.00,29.68,13,3,13,2.76
2013-4-5,62.6,52.8,48.2,44.1,38.7,32.3,81,60,38,29.82,29.74,22,6,22,0.04
2013-4-6,58.5,51.2,46.0,43.2,33.5,25.5,89,53,32,29.85,29.76,88,6,88,0.08
2013-4-7,53.8,45.3,40.1,44.7,33.1,25.7,88,64,37,29.82,29.50,70,4,70,0.21
2013-4-8,57.9,43.3,36.9,33.2,27.9,21.2,78,57,35,30.21,29.74,22,3,22,0.00
2013-4-9,66.0,47.3,31.1,29.8,25.7,20.2,77,45,25,30.30,30.15,26,2,26,0.00
2013-4-10,62.6,51.9,44.4,45.7,31.8,26.1,80,47,33,30.18,29.74,26,5,26,0.08
2013-4-11,59.7,47.3,37.4,31.1,26.7,22.1,73,47,26,30.06,29.94,17,4,17,0.00
2013-4-12,59.5,44.6,31.6,37.7,28.6,21.8,88,58,28,30.09,29.56,19,3,19,3.25
2013-4-13,56.8,43.2,36.1,38.2,22.1,15.8,86,46,25,29.76,29.50,30,6,30,0.00
2013-4-14,56.8,40.1,32.2,28.9,24.9,18.2,77,56,33,29.88,29.76,15,2,15,0.00
2013-4-15,55.9,42.1,32.5,27.1,16.8,11.0,69,37,26,30.09,29.85,17,4,17,0.00
2013-4-16,54.7,38.6,24.6,19.4,13.3,9.4,54,37,23,30.30,30.09,17,3,17,0.00
2013-4-17,60.3,42.7,0.0,20.8,15.1,0.0,65,36,17,30.33,30.21,23,2,23,0.00
2013-4-18,59.0,47.3,30.2,31.4,22.7,10.4,51,38,30,30.27,30.09,13,3,13,0.00
2013-4-19,59.4,50.4,45.3,45.3,41.0,31.9,91,72,46,30.12,29.85,18,5,18,0.21
2013-4-20,66.4,52.6,41.0,36.7,31.0,23.5,74,46,27,30.03,29.88,58,5,58,0.00
2013-4-21,55.6,43.7,36.3,38.2,30.9,24.2,83,61,41,30.27,29.97,15,2,15,0.21
2013-4-22,60.6,45.0,30.0,29.4,21.7,15.3,83,44,22,30.41,30.27,21,2,21,0.00
2013-4-23,65.5,46.1,28.6,26.6,22.1,15.5,69,41,23,30.33,30.12,9,2,9,0.00
2013-4-24,68.9,50.8,29.5,31.4,25.8,21.5,80,43,23,30.27,29.91,13,2,13,0.00
2013-4-25,75.2,57.6,33.8,34.5,28.5,23.0,77,37,19,30.00,29.85,13,2,13,0.00
2013-4-26,79.5,63.3,43.7,39.9,32.2,26.0,61,33,20,30.12,29.97,23,3,23,0.00
2013-4-27,67.3,59.5,52.7,33.2,28.7,23.2,46,31,24,30.06,29.91,20,5,20,0.00
2013-4-28,65.5,55.9,46.9,34.9,29.7,21.4,59,38,25,30.03,29.79,23,5,23,0.96
2013-4-29,61.3,51.7,40.6,33.4,21.2,12.7,57,32,19,29.91,29.68,32,6,32,0.00
2013-4-30,57.7,44.3,32.5,26.8,18.8,13.1,59,37,25,30.30,29.91,16,3,16,0.00
2013-5-1,65.8,47.1,26.4,29.7,21.5,16.1,79,41,18,30.56,30.30,10,1,10,0.00
2013-5-2,76.3,54.5,31.8,31.7,24.9,16.4,68,35,15,30.59,30.21,10,1,10,0.00
2013-5-3,78.3,62.5,50.0,38.1,32.0,25.4,57,33,21,30.24,30.09,10,2,10,0.00
2013-5-4,77.9,62.8,43.9,39.5,31.4,22.8,68,34,18,30.24,30.03,16,2,16,0.96
2013-5-5,84.7,64.4,39.9,36.2,29.4,23.1,59,30,13,30.06,29.76,13,2,13,0.00
2013-5-6,90.7,69.1,46.2,39.6,32.1,24.5,53,29,10,29.88,29.65,10,1,10,0.00
2013-5-7,93.2,70.7,47.1,40.4,35.6,30.4,62,32,12,29.82,29.71,9,2,9,0.00
2013-5-8,93.2,73.7,53.1,43.5,38.3,31.8,53,30,17,29.97,29.82,59,1,59,0.00
2013-5-9,94.3,73.3,53.1,48.2,40.3,28.1,72,36,11,30.06,29.91,8,1,8,0.00
2013-5-10,95.5,73.1,51.1,44.3,38.2,27.5,69,33,12,30.18,30.00,9,1,9,0.00
2013-5-11,93.6,72.5,52.7,47.6,40.8,33.9,67,36,16,30.15,29.91,10,1,10,0.04
2013-5-12,89.2,70.2,56.5,48.6,43.8,39.2,62,41,21,30.06,29.91,18,2,18,0.00
2013-5-13,73.6,59.1,48.6,49.3,43.6,30.0,86,58,33,30.06,29.91,17,3,17,4.12
2013-5-14,69.8,54.8,41.5,36.1,28.7,21.9,59,39,23,30.18,29.97,17,1,17,0.00
2013-5-15,74.5,57.6,38.8,37.8,31.7,26.1,72,42,21,30.09,29.85,7,1,7,0.00
2013-5-16,73.9,57.6,47.5,45.5,40.6,35.4,80,55,32,29.94,29.79,8,1,8,0.05
2013-5-17,80.2,60.7,42.6,49.2,40.5,34.5,91,53,25,29.91,29.76,13,1,13,0.00
2013-5-18,64.8,56.0,49.3,43.4,38.3,33.9,68,52,35,30.09,29.91,9,1,9,0.00
2013-5-19,74.5,59.8,48.9,42.6,38.9,34.4,71,47,31,30.21,30.09,8,1,8,0.00
2013-5-20,82.2,63.8,43.5,48.1,39.8,32.9,90,48,21,30.24,29.85,8,1,8,0.00
2013-5-21,86.4,58.6,42.4,44.5,40.2,33.9,89,55,19,29.85,29.53,21,3,21,4.37
2013-5-22,53.6,43.9,0.0,41.7,34.2,0.0,92,69,43,30.03,29.79,17,2,17,0.04
2013-5-23,69.1,50.8,35.8,40.2,32.7,24.5,91,56,26,30.03,29.91,7,1,7,4.46
2013-5-24,61.3,48.0,35.4,40.0,34.4,29.1,87,61,36,30.03,29.91,12,1,12,4.46
2013-5-25,71.4,53.9,37.8,44.7,35.7,31.3,90,54,28,30.06,29.97,8,1,8,4.46
2013-5-26,79.7,61.6,39.6,42.4,36.3,30.8,85,45,21,30.00,29.85,12,2,12,4.46
2013-5-27,76.1,60.2,51.8,47.2,40.2,33.5,83,51,25,29.94,29.74,11,1,11,0.00
2013-5-28,71.8,58.3,50.2,49.0,44.3,36.2,89,62,36,29.82,29.74,10,1,10,0.04
2013-5-29,71.2,56.3,48.4,46.4,40.8,33.9,85,58,33,29.82,29.62,16,2,16,0.16
2013-5-30,70.0,56.6,45.9,45.5,36.3,28.8,84,50,25,30.09,29.82,23,3,23,0.04
2013-5-31,76.5,59.9,40.5,39.2,32.8,27.8,76,39,21,30.21,30.06,7,1,7,4.66
2013-6-1,81.1,64.4,46.0,43.1,35.5,30.2,67,37,20,30.21,29.91,10,1,10,0.00
2013-6-2,72.1,56.4,47.8,51.1,41.9,34.8,90,60,34,29.97,29.85,9,0,9,0.46
2013-6-3,81.1,60.2,43.5,56.2,44.1,35.5,95,61,24,30.06,29.88,10,1,10,5.24
2013-6-4,83.7,66.0,46.8,50.5,41.1,33.3,92,48,20,30.12,30.00,8,1,229,5.24
2013-6-5,91.4,71.9,50.7,47.8,41.6,35.3,73,38,18,30.06,29.85,9,1,9,0.00
2013-6-6,93.9,75.4,57.2,51.7,44.2,36.8,68,37,18,30.00,29.79,29,1,29,0.00
2013-6-7,89.4,72.5,58.3,50.0,40.5,30.8,71,35,19,29.88,29.74,16,3,16,5.24
2013-6-8,85.5,70.7,51.6,40.8,34.7,30.2,48,28,16,30.00,29.82,172,2,172,0.00
2013-6-9,82.0,69.2,54.9,41.0,32.5,24.3,49,28,14,29.91,29.76,41,2,41,0.04
2013-6-10,84.4,64.5,44.8,37.5,32.7,26.9,56,33,17,29.82,29.68,9,1,9,0.00
2013-6-11,78.8,63.2,45.5,41.5,33.4,26.9,65,34,22,29.94,29.74,16,2,16,0.00
2013-6-12,76.8,62.6,48.4,39.1,32.7,28.8,53,34,22,30.06,29.91,12,2,230,0.00
2013-6-13,76.8,60.3,47.8,39.9,34.1,28.1,55,39,22,30.06,29.94,15,2,15,0.00
2013-6-17,82.4,73.0,66.9,47.9,44.3,41.8,42,36,30,29.97,29.94,10,2,10,0.00
2013-6-18,64.4,60.5,57.2,43.8,42.6,41.9,59,52,44,29.82,29.79,5,1,5,0.24
2013-6-19,61.5,54.9,50.4,53.4,47.6,42.4,92,77,58,29.85,29.74,11,1,11,0.17
2013-6-20,51.1,50.2,49.1,48.5,47.0,45.0,94,89,84,30.06,29.74,35,3,35,1.49
2013-6-21,69.1,43.8,0.0,50.9,35.5,0.0,95,55,40,30.09,30.03,6,0,6,1.80
2013-6-22,79.5,53.6,0.0,50.2,37.0,0.0,93,45,23,30.06,29.91,6,0,6,0.04
2013-6-23,85.5,68.5,48.6,48.9,43.8,35.9,90,46,20,29.94,29.62,8,1,8,0.00
2013-6-24,71.8,62.2,55.4,56.7,51.7,44.9,90,70,47,29.74,29.59,8,1,8,0.21
2013-6-25,75.2,60.9,49.3,56.6,49.3,43.8,95,69,38,29.88,29.74,8,1,8,0.21
2013-6-26,80.4,67.8,57.2,51.4,47.6,44.2,74,51,32,30.12,29.88,8,1,8,0.00
2013-6-27,88.0,71.6,57.2,57.2,51.2,46.5,89,53,28,30.27,30.12,10,2,10,0.00
2013-6-28,95.7,77.1,56.5,57.5,51.1,45.9,88,47,20,30.27,30.06,8,1,8,0.08
2013-6-29,86.0,70.9,62.4,62.4,56.9,51.8,86,63,36,30.12,29.97,14,1,14,0.04
2013-6-30,98.1,79.3,58.3,62.4,52.2,40.5,94,48,16,30.12,29.91,11,1,11,0.00
2013-7-1,104.7,83.4,61.2,59.1,52.8,44.7,82,42,16,30.06,29.79,10,1,10,0.00
2013-7-2,105.1,86.6,67.3,62.3,55.1,47.3,70,38,15,30.06,29.79,14,1,14,0.05
2013-7-3,97.7,81.7,66.2,55.8,44.0,27.9,65,30,12,30.06,29.76,15,2,15,0.00
2013-7-4,90.9,76.5,59.7,44.3,39.2,32.5,52,28,18,29.94,29.74,12,2,12,0.59
2013-7-5,87.1,73.4,59.0,46.0,38.6,32.3,49,30,19,29.88,29.74,11,1,11,0.00
2013-7-6,91.6,73.7,53.8,46.8,40.4,32.9,59,33,18,29.91,29.74,8,1,8,0.00
2013-7-7,93.9,75.4,54.0,49.5,41.5,32.6,72,35,14,29.88,29.71,11,1,11,0.00
2013-7-8,91.8,73.2,59.9,49.6,42.9,29.5,59,36,18,30.06,29.76,12,1,12,0.00
2013-7-9,95.4,76.0,56.8,51.6,43.7,34.3,78,38,14,30.18,29.91,11,1,11,0.00
2013-7-10,98.4,79.6,60.4,51.6,42.4,30.3,59,31,12,30.00,29.68,17,2,17,0.00
2013-7-11,88.5,74.6,60.6,42.1,32.3,17.1,36,22,11,29.88,29.71,15,2,15,0.00
2013-7-12,86.7,68.6,53.6,37.2,29.5,21.7,39,24,13,29.94,29.82,8,1,8,0.00
2013-7-13,85.5,70.0,56.5,39.4,34.8,30.2,45,29,18,30.15,29.91,8,1,8,0.04
2013-7-14,91.6,72.6,50.5,44.8,37.3,28.1,67,32,13,30.15,29.85,8,2,8,0.04
2013-7-15,91.4,72.9,51.6,42.6,34.1,23.5,58,28,12,30.00,29.85,10,2,10,0.00
2013-7-16,94.8,76.3,51.3,46.0,40.5,33.1,59,30,17,30.00,29.74,12,2,12,0.08
2013-7-17,96.8,82.7,68.0,55.7,45.8,37.1,52,30,16,30.00,29.76,21,2,21,0.08
2013-7-18,98.1,79.4,59.4,52.9,41.6,30.3,68,31,11,30.15,29.91,8,1,8,0.09
2013-7-19,101.5,80.7,60.8,49.2,39.8,29.4,54,28,10,30.06,29.79,7,1,7,0.08
2013-7-20,100.9,79.8,58.5,49.6,34.9,19.6,47,24,9,29.97,29.68,9,2,9,0.00
2013-7-21,99.1,79.8,55.2,42.4,34.6,21.5,43,22,10,29.85,29.65,9,2,9,0.08
2013-7-22,98.8,81.5,60.4,45.8,38.9,29.4,45,24,13,29.88,29.71,10,2,10,0.00
2013-7-23,103.5,80.9,57.2,47.9,37.2,28.1,50,25,9,30.03,29.79,6,1,6,0.05
2013-7-24,102.7,82.7,57.2,48.8,38.4,30.2,53,25,9,29.97,29.76,9,1,9,0.00
2013-7-25,102.2,85.2,56.7,48.2,37.5,30.0,51,22,9,30.03,29.82,8,2,8,0.00
2013-7-26,101.5,75.9,0.0,47.3,26.8,0.0,28,10,9,30.03,27.90,8,2,8,0.00
2013-7-27,95.2,78.3,61.5,41.7,30.8,20.6,33,19,10,29.94,29.74,8,2,8,0.00
2013-7-28,92.1,74.9,55.8,41.8,34.4,20.7,45,24,13,29.88,29.74,8,1,8,0.00
2013-7-29,92.5,72.6,53.2,43.2,37.1,31.0,51,30,16,29.91,29.79,8,1,8,0.00
2013-7-30,95.7,77.3,59.7,47.6,39.6,30.3,53,29,12,30.06,29.88,18,1,18,0.00
2013-7-31,95.4,76.4,60.3,47.5,39.7,32.8,51,29,14,30.09,29.85,173,1,173,5.24
2013-8-1,78.1,66.2,57.7,55.3,45.2,36.3,88,48,32,30.00,29.85,8,1,8,0.33
2013-8-2,63.5,59.2,56.5,57.4,55.2,53.6,93,87,71,30.12,29.94,12,1,12,0.83
2013-8-3,84.7,67.3,57.4,58.7,52.9,46.2,95,65,32,30.12,30.03,6,1,6,0.04
2013-8-4,91.8,73.8,55.2,58.4,49.3,41.6,91,49,20,30.09,29.91,9,1,9,0.00
2013-8-5,95.2,75.1,58.5,54.2,47.2,39.0,76,43,17,30.00,24.57,7,1,7,0.00
2013-8-6,97.7,76.8,60.4,55.5,48.2,40.0,72,41,17,30.00,29.82,9,1,9,0.68
2013-8-7,99.3,79.6,60.4,54.5,43.3,30.4,71,34,11,29.94,29.76,9,2,9,0.00
2013-8-8,97.9,77.2,58.1,50.0,43.0,35.4,65,33,14,29.94,29.79,8,1,8,0.00
2013-8-9,99.0,81.0,61.3,52.5,48.0,43.8,65,35,17,29.88,29.74,11,1,11,0.00
2013-8-10,96.1,83.2,70.2,47.2,44.4,38.8,43,27,17,29.94,29.76,11,2,11,0.13
2013-8-11,96.1,80.8,66.6,52.9,46.7,41.8,48,32,19,30.06,29.82,7,1,7,0.00
2013-8-12,96.4,78.6,59.7,57.4,47.7,40.8,72,38,17,30.06,29.82,10,1,10,0.00
2013-8-13,96.4,78.0,60.3,54.6,44.7,37.0,62,34,17,30.12,29.85,7,1,7,0.00
2013-8-14,99.3,78.9,63.1,55.6,47.7,40.4,71,38,15,30.06,29.76,9,2,9,0.00
2013-8-15,99.0,79.4,59.7,51.6,44.2,36.0,67,33,16,29.94,29.76,8,1,8,0.00
2013-8-16,94.5,76.6,61.2,51.0,43.0,37.5,54,32,17,30.03,29.85,7,1,7,0.00
2013-8-17,93.0,76.8,59.2,53.3,44.9,37.8,66,35,18,30.06,29.85,11,2,11,0.00
2013-8-18,91.2,74.8,58.1,47.1,41.1,33.5,55,32,17,30.06,29.85,10,2,10,0.81
2013-8-19,91.4,76.0,59.7,45.7,40.3,36.0,50,30,18,30.06,29.85,15,2,15,0.00
2013-8-20,90.3,73.3,56.8,42.1,34.3,22.8,50,26,12,30.06,29.91,32,2,32,0.00
2013-8-21,93.9,72.0,49.5,42.4,34.9,23.0,60,29,13,30.12,29.91,7,1,7,0.00
2013-8-22,96.6,77.1,54.0,44.2,39.2,32.3,55,29,14,29.97,29.74,13,2,13,0.00
2013-8-23,91.2,75.6,62.1,49.3,44.2,37.1,49,34,21,29.85,29.74,12,2,12,0.00
2013-8-24,91.8,71.3,54.5,53.6,43.3,36.5,75,41,18,29.88,29.71,6,1,6,0.00
2013-8-25,92.8,73.4,60.6,55.8,47.8,41.0,83,45,19,29.94,29.71,23,2,23,0.81
2013-8-26,86.5,70.5,55.0,57.0,46.1,36.2,87,47,21,30.06,29.85,7,1,7,0.93
2013-8-27,91.2,72.3,51.6,53.1,43.3,36.5,76,40,18,30.00,29.74,10,1,10,0.00
2013-8-28,92.3,73.8,56.7,49.8,43.7,37.0,70,38,18,29.88,29.74,9,2,9,0.93
2013-8-29,88.5,71.1,57.9,52.2,46.2,40.5,69,43,20,30.00,29.85,10,1,10,0.00
2013-8-30,88.3,73.0,58.8,52.0,42.4,32.7,65,36,19,30.15,29.97,13,2,13,0.00
2013-8-31,92.8,70.8,51.3,48.1,38.5,30.8,73,36,14,30.09,29.85,6,1,6,0.00
2013-9-1,98.2,74.9,53.6,46.2,40.4,31.6,65,33,14,29.94,29.68,9,2,9,0.00
2013-9-2,84.6,68.6,61.2,56.9,50.1,39.0,69,52,34,29.97,29.76,10,2,10,0.00
2013-9-3,91.9,74.6,64.9,55.9,52.4,36.9,70,49,18,30.03,29.82,10,2,10,1.45
2013-9-4,98.1,78.0,66.0,61.6,52.1,45.6,82,44,19,30.06,29.88,115,2,115,0.08
2013-9-5,84.6,71.5,63.5,63.0,58.8,53.7,93,66,37,30.03,29.82,10,2,10,0.42
2013-9-6,73.4,63.2,59.2,62.4,51.7,42.4,96,69,35,30.18,29.88,8,1,8,0.00
2013-9-7,81.0,63.6,54.3,54.9,49.5,42.0,93,63,30,30.18,30.03,8,1,8,0.08
2013-9-8,82.6,62.4,53.6,55.8,51.2,43.0,95,72,31,30.12,29.97,6,0,6,0.00
2013-9-9,90.0,70.8,53.2,56.0,48.1,40.9,85,50,21,30.06,29.91,6,1,6,0.00
2013-9-10,93.2,71.8,56.3,55.0,48.2,39.9,83,49,19,30.09,29.91,10,1,10,0.00
2013-9-11,97.5,75.7,56.8,55.1,47.2,40.3,80,43,16,30.12,29.91,8,1,8,0.00
2013-9-12,99.7,77.0,60.1,51.3,45.7,39.1,64,38,16,30.03,29.79,6,1,6,0.00
2013-9-13,97.0,74.3,54.7,55.2,46.0,36.8,81,42,17,29.88,29.68,6,1,6,0.00
2013-9-14,96.6,77.8,60.4,53.9,44.5,35.3,67,35,17,29.94,29.74,172,2,172,0.00
2013-9-15,95.9,77.8,61.9,56.9,42.9,36.6,81,31,17,29.82,29.56,115,2,115,1.59
2013-9-16,77.9,63.6,56.1,57.5,49.8,40.9,86,63,32,29.91,29.68,8,1,8,0.04
2013-9-17,80.8,61.0,48.6,51.5,46.0,39.9,88,62,28,29.82,29.65,11,1,11,0.09
2013-9-18,71.1,58.4,49.3,50.8,41.1,32.9,92,57,26,30.06,29.74,14,2,14,1.76
2013-9-19,78.3,60.6,43.7,47.6,37.6,30.4,82,47,22,30.15,29.91,8,2,8,0.00
2013-9-20,84.0,65.5,49.1,43.7,39.6,34.9,75,43,20,29.94,29.50,19,3,229,1.76
2013-9-21,70.7,60.8,48.7,44.9,38.7,32.9,65,45,32,29.71,29.50,10,2,10,0.00
2013-9-22,66.6,55.6,45.1,47.4,41.6,34.3,82,62,35,29.74,29.62,12,3,12,0.04
2013-9-23,67.1,56.6,48.7,47.4,40.0,34.7,82,56,35,29.94,29.74,11,3,11,0.00
2013-9-24,68.4,55.2,48.2,50.8,38.8,28.8,84,56,31,29.91,29.74,10,1,10,1.97
2013-9-25,85.1,50.4,44.1,45.5,41.0,36.0,88,71,40,29.88,29.74,8,0,8,2.57
2013-9-26,70.5,52.2,38.1,50.6,34.9,25.5,97,59,24,30.00,29.88,9,1,9,0.00
2013-9-27,59.9,49.4,40.8,43.0,35.6,30.2,83,60,37,30.00,29.88,11,2,11,0.00
2013-9-28,60.8,55.1,49.5,50.1,46.3,41.4,88,73,50,29.91,29.44,26,4,26,0.25
2013-9-29,59.5,52.4,46.2,50.4,40.0,35.7,86,64,47,29.65,29.41,33,4,33,0.25
2013-9-30,61.5,52.7,45.1,47.1,35.8,31.5,85,54,36,29.88,29.41,31,5,31,0.04
2013-10-1,60.1,48.1,40.6,43.6,35.9,32.3,78,64,43,30.12,29.88,13,2,13,0.08
2013-10-2,62.6,47.7,37.6,40.2,33.7,29.9,85,60,34,30.18,30.00,11,2,11,0.00
2013-10-3,68.0,49.0,33.1,42.7,31.0,24.3,92,56,24,30.39,30.03,10,1,10,0.00
2013-10-4,67.1,48.2,34.0,36.6,28.7,23.3,86,51,24,30.53,30.39,6,1,6,0.00
2013-10-5,71.8,49.6,32.4,37.5,29.6,24.2,84,51,23,30.44,30.24,6,1,6,0.00
2013-10-6,73.4,53.5,38.7,39.0,34.3,30.2,84,52,24,30.27,29.94,6,2,6,0.00
2013-10-7,70.0,53.2,41.0,44.8,33.1,27.0,80,49,26,29.97,29.82,20,3,20,2.71
2013-10-8,59.9,46.1,41.0,41.7,36.7,28.4,88,71,41,30.03,29.85,13,2,13,0.13
2013-10-9,64.4,46.7,34.5,42.2,36.1,30.2,95,71,34,30.09,29.85,8,1,8,0.00
2013-10-10,59.4,47.8,36.0,39.7,35.2,30.9,84,64,39,29.97,29.79,8,1,8,0.00
2013-10-11,63.3,45.5,32.9,40.1,31.6,25.8,91,63,28,30.09,29.97,11,1,11,0.00
2013-10-12,64.8,48.1,34.7,37.3,31.7,26.7,76,55,29,30.12,29.97,14,1,14,0.00
2013-10-13,63.3,43.8,29.3,37.0,28.2,23.9,88,59,26,30.24,30.09,4,1,4,0.00
2013-10-14,65.5,43.8,27.7,34.9,26.6,21.3,85,56,25,30.39,30.24,4,0,4,0.00
2013-10-15,65.3,43.2,28.6,34.2,26.7,22.5,86,56,25,30.41,30.15,5,1,5,0.00
2013-10-16,66.0,48.6,36.7,38.9,30.6,25.9,74,53,27,30.18,30.03,6,1,6,0.00
2013-10-17,65.1,44.3,31.8,40.7,32.5,27.5,91,67,33,30.24,30.15,6,1,6,0.00
2013-10-18,66.6,43.6,30.2,43.6,31.8,26.8,92,68,30,30.27,30.09,6,1,6,0.00
2013-10-19,68.0,46.2,30.9,40.1,31.5,27.2,88,61,28,30.18,30.00,6,1,6,0.00
2013-10-20,70.9,48.2,31.8,38.4,33.2,28.2,89,61,27,30.15,30.03,6,1,6,0.00
2013-10-21,70.9,49.0,36.3,45.7,36.7,31.7,94,67,30,30.18,30.09,6,1,6,2.84
2013-10-22,69.8,49.9,40.1,45.1,40.4,36.8,97,74,34,30.21,30.03,8,1,8,2.84
2013-10-23,68.4,50.0,41.2,44.2,40.3,37.0,97,73,35,30.15,30.03,8,2,8,0.00
2013-10-24,68.2,49.6,37.9,43.0,39.5,33.7,93,72,34,30.12,30.00,23,2,23,0.00
2013-10-25,64.8,46.6,38.7,45.0,40.2,35.4,98,81,41,30.24,30.09,22,2,22,0.00
2013-10-26,57.9,44.4,35.4,42.8,38.6,32.1,98,82,47,30.30,30.03,27,2,27,0.00
2013-10-27,50.9,42.8,36.3,44.8,35.3,20.8,98,78,37,30.06,29.74,24,3,24,0.04
2013-10-28,46.0,35.7,28.2,29.0,14.4,10.6,74,42,31,30.00,27.70,31,3,31,2.23
2013-10-29,55.4,37.7,23.5,22.5,16.9,11.6,72,46,26,30.00,29.88,8,1,8,0.00
2013-10-30,52.3,41.2,24.3,27.2,22.7,15.7,70,49,32,30.06,29.97,22,2,22,0.00
2013-10-31,62.1,51.2,32.0,34.1,28.3,22.3,68,42,34,30.12,29.97,10,2,10,0.00
2013-11-1,52.7,7.6,0.0,27.2,3.9,0.0,37,5,37,30.21,29.97,10,1,10,0.00
2013-11-2,54.5,35.7,0.0,46.8,26.0,0.0,97,50,38,29.97,27.55,38,5,38,0.21
2013-11-3,47.5,37.6,32.4,32.6,26.8,19.0,88,66,38,29.97,29.74,88,4,88,0.04
2013-11-4,41.5,34.4,27.5,29.5,25.5,21.8,89,71,49,30.12,29.94,6,1,6,0.00
2013-11-5,36.3,33.6,28.4,34.0,29.4,22.2,94,85,74,30.18,30.03,34,0,34,3.15
2013-11-6,42.1,37.2,35.1,34.8,32.8,30.3,96,85,65,30.30,30.15,6,0,6,0.05
2013-11-7,53.1,40.6,36.9,46.2,37.2,31.7,98,88,48,30.24,29.56,29,4,29,0.41
2013-11-8,53.6,43.1,32.0,36.8,31.6,26.0,87,65,37,30.15,29.85,16,3,16,0.05
2013-11-9,48.9,39.3,30.0,37.0,32.3,27.3,95,77,52,30.18,30.06,8,2,8,0.00
2013-11-10,47.3,42.7,40.5,38.7,36.8,35.4,85,80,68,30.24,30.03,6,1,6,0.46
2013-11-11,56.5,44.8,36.9,40.5,34.9,32.1,91,70,45,30.33,30.21,15,3,15,0.46
2013-11-12,53.1,43.9,38.5,39.3,35.9,31.1,86,74,48,30.33,29.56,12,2,12,0.46
2013-11-13,49.1,43.2,38.1,42.9,37.8,33.5,95,82,58,30.33,30.21,10,1,10,0.46
2013-11-14,48.7,39.5,33.8,42.8,35.0,30.4,98,84,59,30.24,29.88,22,1,22,0.00
2013-11-15,40.6,37.0,34.7,35.9,32.7,29.5,94,85,68,29.91,29.29,18,5,18,0.33
2013-11-16,47.1,38.5,35.1,35.3,28.0,20.6,90,67,40,29.65,29.14,28,5,28,0.08
2013-11-17,47.3,40.6,31.8,33.4,27.2,21.8,71,59,50,29.85,29.62,20,4,20,0.00
2013-11-18,50.9,46.7,43.5,39.5,29.6,25.9,82,52,39,29.85,29.65,103,6,103,0.08
2013-11-19,56.5,48.4,38.1,38.8,32.3,13.9,80,54,36,29.76,29.50,80,6,80,0.05
2013-11-20,39.4,30.5,17.4,13.1,3.7,-1.2,45,32,22,30.41,29.76,109,4,109,0.00
2013-11-21,42.1,21.6,12.6,14.2,5.3,-1.1,66,50,31,30.65,30.41,12,1,12,0.00
2013-11-22,41.7,22.5,13.6,16.5,9.8,3.5,75,59,34,30.71,30.56,8,1,8,0.00
2013-11-23,44.1,28.1,18.5,20.0,13.6,9.6,72,55,36,30.59,30.27,8,1,8,0.00
2013-11-24,45.3,28.6,19.8,21.9,16.5,12.5,80,62,38,30.36,30.18,6,1,6,1.00
2013-11-25,44.1,31.1,21.4,27.8,21.0,16.4,83,67,45,30.39,30.30,8,1,8,0.00
2013-11-26,45.9,32.5,25.0,27.1,22.4,19.1,84,67,43,30.36,30.09,8,1,8,0.00
2013-11-27,44.2,31.9,23.2,29.7,25.0,19.4,95,77,48,30.18,30.03,24,2,24,0.00
2013-11-28,44.1,31.0,23.2,29.0,24.2,19.4,91,77,49,30.18,30.03,15,2,15,0.00
2013-11-29,32.4,28.7,23.5,31.1,27.0,20.2,95,93,87,30.24,30.15,28,1,28,0.00
2013-11-30,38.3,34.0,29.3,34.8,32.0,27.8,97,92,83,30.24,30.12,6,0,6,0.04
2013-12-1,47.7,43.6,35.6,41.9,38.3,34.4,97,82,65,30.12,29.56,31,5,31,0.29
2013-12-2,46.6,35.6,26.4,38.4,20.9,11.2,77,56,40,29.94,29.56,24,4,24,0.29
2013-12-3,32.5,25.2,16.0,11.7,2.0,-3.0,49,36,30,30.21,29.94,75,6,75,0.00
2013-12-4,33.4,17.9,9.3,10.2,0.1,-6.4,64,45,32,30.24,30.15,7,1,7,0.00
2013-12-5,23.0,14.8,7.0,7.6,3.3,-2.3,66,60,51,30.24,30.12,14,1,14,1.33
2013-12-6,20.3,11.1,5.5,4.1,-5.8,-13.5,65,48,34,30.24,30.09,18,4,18,0.00
2013-12-7,23.2,8.9,1.4,-5.8,-15.1,-23.6,36,32,27,30.24,30.09,31,3,31,0.00
2013-12-8,22.1,10.4,1.6,0.2,-11.9,-23.3,49,35,29,30.41,30.24,29,2,29,0.00
2013-12-9,22.3,18.4,13.5,6.2,0.6,-8.1,55,45,37,30.41,30.21,7,1,7,0.08
2013-12-10,33.3,21.8,13.3,12.7,8.2,3.5,69,55,42,30.36,30.21,6,1,6,0.00
2013-12-11,37.4,28.2,22.5,18.6,13.9,8.3,66,55,43,30.36,30.24,7,1,7,0.00
2013-12-12,34.2,28.2,21.2,29.9,20.4,14.7,86,73,59,30.24,30.00,10,1,10,0.00
2013-12-13,34.7,23.5,0.0,27.8,18.3,0.0,80,53,69,30.36,30.06,9,1,9,1.41
2013-12-14,42.1,29.4,0.0,38.5,25.5,0.0,97,64,66,30.39,28.17,7,1,7,0.00
2013-12-15,49.3,41.1,29.5,36.7,31.1,25.1,92,68,46,30.24,30.12,18,3,18,1.41
2013-12-16,46.2,38.1,31.3,34.5,31.8,28.1,93,79,58,30.33,30.21,64,2,64,0.00
2013-12-17,46.6,35.1,27.5,34.8,28.7,24.2,97,79,52,30.30,29.91,48,1,48,0.00
2013-12-18,39.7,34.0,29.1,31.3,27.2,14.0,88,76,52,29.94,29.74,18,2,18,0.00
2013-12-19,36.1,27.9,21.7,16.4,10.0,5.8,54,47,40,30.12,29.91,38,3,38,0.00
2013-12-20,28.9,26.3,21.9,24.2,16.4,6.8,86,67,44,30.06,29.59,26,2,26,0.00
2013-12-21,33.1,28.0,19.8,26.4,22.7,16.0,90,80,67,30.06,29.74,9,0,9,0.00
2013-12-22,36.3,32.2,28.9,32.1,29.4,0.0,95,89,77,30.21,30.03,4,0,4,0.04
2013-12-23,45.5,38.1,32.7,39.9,34.1,24.5,98,86,65,30.24,29.88,20,4,20,0.25
2013-12-24,46.2,31.0,23.0,30.4,23.7,19.5,92,76,44,30.47,30.21,10,1,10,0.00
2013-12-25,35.2,27.2,21.7,29.2,24.6,0.0,93,90,85,30.50,30.33,6,0,6,0.04
2013-12-26,40.8,29.5,22.5,32.2,25.4,20.2,95,85,60,30.36,30.21,4,0,4,0.00
2013-12-27,35.4,29.3,23.2,30.8,25.6,20.5,94,86,67,30.27,29.97,10,1,10,0.00
2013-12-28,32.9,29.7,27.1,27.1,25.5,24.1,93,84,74,30.41,30.15,7,1,7,0.29
2013-12-29,39.2,29.2,22.3,31.5,25.0,19.6,92,85,59,30.39,30.12,12,0,12,0.29
2013-12-30,34.3,29.8,24.4,32.6,27.3,21.7,95,90,79,30.21,30.06,20,0,20,0.00
2013-12-31,36.3,33.4,31.1,33.1,30.6,26.0,95,89,79,30.30,30.03,17,0,17,0.00
2014-1-1,36.1,33.6,32.5,32.1,31.2,30.6,95,91,83,30.36,30.27,8,1,8,0.29
2014-1-2,46.2,37.0,31.8,33.9,31.1,27.0,96,81,47,30.30,29.68,24,2,24,0.00